Location: Unspecified
(0.0000°N, 0.0000°E)
Time: 13:04:37
(UTC+01:00)

NATO 3D Rocket - Visible Passes

Search period start: 23 November 2014 00:00
Search period end: 03 December 2014 00:00
Orbit: 670 x 2297 km, 21.5° (Epoch: 20 November)

Date Brightness Start Highest point End Pass type
(mag) Time Alt. Az. Time Alt. Az. Time Alt. Az.
23 Nov 7.0 02:31:55 13° ESE 02:31:55 13° ESE 02:32:37 10° ESE visible
23 Nov 5.0 04:27:27 49° SW 04:28:23 51° SSW 04:35:22 10° SE visible
23 Nov 6.5 18:52:15 10° WNW 19:01:03 29° N 19:11:56 10° NE visible
23 Nov 6.6 20:58:54 10° NW 21:09:20 28° N 21:09:52 28° N visible
23 Nov 7.5 23:05:15 10° NW 23:05:24 10° NW 23:05:24 10° NW visible
24 Nov 5.5 03:33:41 47° SE 03:33:41 47° SE 03:38:55 10° ESE visible
24 Nov 5.8 05:29:13 14° WSW 05:35:06 26° SSW 05:40:35 10° SSE visible
24 Nov 6.6 20:00:41 10° NW 20:10:04 26° N 20:16:13 19° NE visible
24 Nov 6.9 22:06:45 10° NW 22:11:45 23° NNW 22:11:45 23° NNW visible
25 Nov 6.6 02:39:53 21° ESE 02:39:53 21° ESE 02:42:09 10° ESE visible
25 Nov 5.6 04:35:24 33° SW 04:37:36 37° SSW 04:44:30 10° SE visible
25 Nov 6.6 19:02:48 10° NW 19:11:03 25° N 19:21:06 10° NE visible
25 Nov 6.5 21:08:34 10° NW 21:18:06 29° N 21:18:06 29° N visible
26 Nov 5.6 03:41:34 46° S 03:41:34 46° S 03:48:08 10° SE visible
26 Nov 6.2 05:38:21 10° WSW 05:44:36 20° SSW 05:49:35 10° SSE visible
26 Nov 6.5 20:10:42 10° NW 20:20:03 27° N 20:24:30 23° NE visible
26 Nov 6.9 22:15:47 10° NW 22:20:03 23° NW 22:20:03 23° NW visible
27 Nov 6.4 02:47:40 29° SE 02:47:40 29° SE 02:51:25 10° SE visible
27 Nov 6.0 04:43:11 23° SW 04:46:55 28° SSW 04:53:35 10° SE visible
27 Nov 6.5 19:13:07 10° NW 19:21:05 24° N 19:30:45 10° NE visible
27 Nov 6.4 21:17:51 10° NW 21:26:29 32° N 21:26:29 32° N visible
28 Nov 7.2 01:53:44 12° ESE 01:53:44 12° ESE 01:54:20 10° ESE visible
28 Nov 5.9 03:49:15 38° SSW 03:49:15 38° SSW 03:57:14 10° SE visible
28 Nov 6.4 05:49:00 10° SW 05:54:20 17° SSW 05:58:46 10° SSE visible
28 Nov 6.4 20:20:17 10° NW 20:29:52 29° NNE 20:32:59 27° NE visible
28 Nov 6.9 22:24:39 10° NW 22:28:32 23° NW 22:28:32 23° NW visible
29 Nov 6.3 02:55:16 35° SSE 02:55:16 35° SSE 03:00:32 10° SE visible
29 Nov 6.4 04:50:46 15° WSW 04:56:27 23° SSW 05:02:44 10° SSE visible
29 Nov 6.4 19:23:02 10° NW 19:31:02 25° NNE 19:39:32 13° ENE visible
29 Nov 6.2 21:26:54 10° NW 21:35:05 37° N 21:35:05 37° N visible
30 Nov 7.0 02:01:14 19° SE 02:01:14 19° SE 02:03:28 10° SE visible
30 Nov 6.3 03:56:44 29° SW 03:58:21 30° SSW 04:06:20 10° SE visible
30 Nov 6.6 05:59:25 10° SW 06:04:17 15° SSW 06:08:23 10° SSE visible
30 Nov 6.1 20:29:31 10° NW 20:39:28 34° NNE 20:41:43 33° NE visible
30 Nov 6.9 22:33:31 10° NW 22:37:17 24° NW 22:37:17 24° NW visible
01 Dec 6.3 03:02:41 35° S 03:02:41 35° S 03:09:35 10° SE visible
01 Dec 6.6 04:58:53 10° WSW 05:06:14 20° SSW 05:12:09 10° SSE visible
01 Dec 6.2 19:32:30 10° NW 19:40:48 28° NNE 19:48:26 16° ENE visible
01 Dec 6.0 21:35:50 10° NW 21:44:00 44° NNW 21:44:00 44° NNW visible
02 Dec 6.8 02:08:34 25° SE 02:08:34 25° SE 02:12:28 10° SE visible
02 Dec 6.5 04:04:04 22° SW 04:07:56 25° SSW 04:15:35 10° SE visible
02 Dec 6.7 06:09:12 10° SW 06:14:22 16° S 06:18:41 10° SSE visible
02 Dec 5.8 20:38:35 10° NW 20:48:48 42° NNE 20:50:49 40° NE visible
02 Dec 6.8 22:42:29 10° WNW 22:46:23 26° WNW 22:46:23 26° WNW visible
